Precipitable_Water
0.21 0.22 0.24 0.22 0.22 0.25 0.23 0.23 0.23 0.24 0.24 0.24 0.24 0.24 0.25 0.24 0.25 0.26 0.26 0.28 0.31 0.31 0.30 0.39 0.48 0.52 0.54 0.58 0.59 0.58 0.57 0.57 0.51 0.54 0.55 0.55 0.51 0.48 0.46 0.45 0.44 0.42 0.41
0.19 0.20 0.19 0.20 0.21 0.21 0.21 0.21 0.21 0.21 0.21 0.23 0.22 0.21 0.21 0.21 0.22 0.22 0.24 0.24 0.25 0.25 0.26 0.26 0.25 0.31 0.41 0.51 0.54 0.54 0.54 0.55 0.53 0.50 0.57 0.57 0.55 0.54 0.50 0.46 0.45 0.45 0.43
0.21 0.20 0.20 0.20 0.20 0.19 0.19 0.19 0.18 0.18 0.18 0.18 0.18 0.18 0.17 0.16 0.16 0.17 0.18 0.18 0.20 0.21 0.23 0.24 0.24 0.24 0.24 0.27 0.37 0.47 0.52 0.52 0.52 0.50 0.50 0.56 0.59 0.59 0.55 0.52 0.48 0.46 0.46
0.21 0.20 0.20 0.20 0.20 0.19 0.18 0.17 0.16 0.16 0.15 0.14 0.15 0.15 0.15 0.14 0.13 0.13 0.14 0.13 0.14 0.16 0.17 0.19 0.20 0.21 0.22 0.21 0.22 0.27 0.35 0.45 0.50 0.48 0.47 0.49 0.51 0.56 0.57 0.52 0.49 0.49 0.46
0.21 0.21 0.20 0.19 0.18 0.17 0.15 0.14 0.14 0.13 0.13 0.13 0.12 0.12 0.13 0.13 0.12 0.12 0.14 0.13 0.13 0.13 0.13 0.15 0.17 0.18 0.18 0.20 0.20 0.19 0.21 0.25 0.34 0.44 0.47 0.48 0.46 0.47 0.49 0.52 0.51 0.51 0.49
0.21 0.20 0.20 0.18 0.17 0.15 0.13 0.12 0.12 0.11 0.10 0.10 0.10 0.10 0.10 0.11 0.12 0.14 0.15 0.14 0.14 0.13 0.12 0.13 0.14 0.15 0.18 0.19 0.19 0.21 0.21 0.19 0.18 0.23 0.32 0.42 0.47 0.47 0.49 0.48 0.50 0.49 0.46
0.21 0.21 0.20 0.17 0.14 0.12 0.11 0.10 0.09 0.08 0.09 0.09 0.09 0.10 0.11 0.11 0.14 0.15 0.17 0.17 0.16 0.14 0.13 0.13 0.14 0.15 0.16 0.16 0.18 0.19 0.19 0.19 0.20 0.20 0.19 0.23 0.33 0.46 0.49 0.49 0.48 0.48 0.48
0.21 0.19 0.17 0.14 0.11 0.10 0.09 0.08 0.08 0.09 0.09 0.10 0.11 0.12 0.12 0.13 0.14 0.15 0.15 0.15 0.15 0.15 0.15 0.15 0.14 0.13 0.14 0.15 0.17 0.17 0.17 0.17 0.16 0.17 0.18 0.18 0.21 0.26 0.37 0.44 0.48 0.51 0.51
0.19 0.17 0.14 0.11 0.09 0.08 0.08 0.08 0.09 0.10 0.11 0.12 0.12 0.12 0.12 0.11 0.12 0.12 0.13 0.13 0.12 0.12 0.13 0.13 0.13 0.13 0.14 0.15 0.15 0.15 0.15 0.16 0.18 0.18 0.18 0.17 0.18 0.20 0.25 0.31 0.36 0.40 0.44
0.17 0.14 0.11 0.10 0.08 0.08 0.09 0.09 0.11 0.12 0.12 0.12 0.11 0.11 0.11 0.11 0.11 0.13 0.14 0.14 0.13 0.13 0.14 0.14 0.15 0.15 0.15 0.15 0.16 0.15 0.14 0.14 0.16 0.18 0.18 0.16 0.18 0.19 0.21 0.27 0.29 0.30 0.36
0.15 0.12 0.10 0.09 0.09 0.09 0.10 0.10 0.11 0.12 0.12 0.11 0.11 0.11 0.12 0.13 0.13 0.14 0.14 0.13 0.12 0.11 0.11 0.12 0.13 0.14 0.15 0.16 0.18 0.17 0.17 0.18 0.18 0.19 0.19 0.18 0.17 0.16 0.18 0.20 0.26 0.27 0.28
0.13 0.10 0.09 0.09 0.10 0.10 0.10 0.11 0.12 0.12 0.11 0.10 0.10 0.12 0.13 0.13 0.13 0.12 0.13 0.14 0.14 0.13 0.12 0.12 0.11 0.12 0.13 0.15 0.16 0.16 0.16 0.19 0.20 0.20 0.19 0.19 0.17 0.17 0.16 0.18 0.20 0.25 0.28
0.11 0.09 0.09 0.09 0.10 0.10 0.10 0.12 0.12 0.12 0.10 0.09 0.11 0.12 0.12 0.13 0.12 0.13 0.14 0.14 0.14 0.14 0.14 0.14 0.14 0.14 0.14 0.14 0.14 0.14 0.15 0.17 0.15 0.17 0.19 0.19 0.20 0.20 0.19 0.19 0.20 0.23 0.27
0.10 0.09 0.09 0.10 0.09 0.10 0.11 0.13 0.12 0.10 0.09 0.10 0.11 0.12 0.13 0.14 0.14 0.14 0.15 0.15 0.16 0.17 0.17 0.15 0.15 0.15 0.15 0.15 0.15 0.15 0.14 0.16 0.16 0.16 0.19 0.23 0.24 0.23 0.21 0.21 0.19 0.19 0.20
0.10 0.09 0.10 0.10 0.09 0.10 0.11 0.13 0.12 0.11 0.11 0.11 0.12 0.14 0.14 0.14 0.15 0.16 0.17 0.17 0.18 0.18 0.19 0.18 0.16 0.14 0.13 0.13 0.14 0.15 0.15 0.15 0.17 0.19 0.19 0.21 0.23 0.24 0.22 0.22 0.21 0.20 0.19
0.10 0.10 0.10 0.10 0.09 0.10 0.12 0.13 0.13 0.12 0.12 0.13 0.13 0.14 0.15 0.16 0.17 0.18 0.18 0.18 0.18 0.19 0.18 0.16 0.15 0.14 0.13 0.14 0.15 0.15 0.14 0.15 0.17 0.21 0.23 0.23 0.23 0.22 0.21 0.22 0.21 0.19 0.18
0.10 0.10 0.10 0.09 0.09 0.10 0.12 0.12 0.10 0.11 0.12 0.12 0.12 0.13 0.14 0.15 0.16 0.17 0.17 0.18 0.18 0.17 0.15 0.14 0.13 0.13 0.14 0.15 0.16 0.15 0.14 0.15 0.17 0.19 0.22 0.21 0.20 0.19 0.19 0.20 0.19 0.19 0.18
0.11 0.11 0.10 0.09 0.09 0.10 0.12 0.12 0.10 0.10 0.09 0.10 0.11 0.12 0.13 0.13 0.14 0.16 0.16 0.16 0.15 0.15 0.14 0.14 0.14 0.14 0.14 0.15 0.16 0.16 0.16 0.16 0.17 0.20 0.21 0.23 0.22 0.22 0.22 0.19 0.19 0.17 0.17
0.11 0.11 0.10 0.10 0.10 0.11 0.13 0.12 0.10 0.10 0.10 0.10 0.10 0.11 0.12 0.13 0.13 0.14 0.14 0.14 0.14 0.14 0.14 0.14 0.15 0.15 0.14 0.15 0.17 0.17 0.17 0.16 0.15 0.16 0.18 0.21 0.22 0.22 0.22 0.21 0.20 0.19 0.19
0.11 0.10 0.10 0.09 0.10 0.11 0.13 0.12 0.10 0.10 0.10 0.10 0.10 0.10 0.11 0.12 0.11 0.12 0.13 0.13 0.14 0.14 0.14 0.14 0.15 0.16 0.16 0.16 0.17 0.19 0.19 0.19 0.19 0.17 0.17 0.21 0.22 0.22 0.21 0.21 0.20 0.19 0.19
0.11 0.10 0.09 0.09 0.10 0.12 0.13 0.11 0.10 0.10 0.10 0.10 0.10 0.11 0.12 0.11 0.11 0.11 0.12 0.13 0.13 0.14 0.14 0.14 0.15 0.15 0.16 0.17 0.17 0.17 0.19 0.21 0.21 0.21 0.22 0.22 0.22 0.21 0.21 0.20 0.20 0.20 0.20
0.10 0.09 0.09 0.09 0.11 0.13 0.13 0.11 0.10 0.10 0.10 0.10 0.10 0.11 0.12 0.11 0.11 0.11 0.11 0.12 0.13 0.14 0.15 0.15 0.15 0.15 0.16 0.16 0.17 0.17 0.18 0.17 0.18 0.19 0.20 0.21 0.21 0.20 0.20 0.20 0.20 0.19 0.19
0.09 0.09 0.09 0.10 0.12 0.13 0.12 0.10 0.10 0.10 0.10 0.10 0.10 0.10 0.11 0.11 0.11 0.11 0.11 0.12 0.13 0.14 0.15 0.15 0.15 0.15 0.16 0.17 0.17 0.18 0.17 0.17 0.18 0.19 0.18 0.18 0.18 0.18 0.18 0.18 0.18 0.18 0.17
0.08 0.09 0.09 0.11 0.12 0.12 0.10 0.10 0.10 0.09 0.09 0.09 0.09 0.10 0.10 0.10 0.11 0.11 0.12 0.12 0.13 0.14 0.14 0.15 0.15 0.15 0.16 0.17 0.17 0.18 0.18 0.18 0.19 0.19 0.19 0.18 0.18 0.18 0.18 0.17 0.17 0.17 0.17
0.09 0.09 0.10 0.11 0.11 0.10 0.09 0.09 0.08 0.08 0.08 0.09 0.09 0.09 0.10 0.10 0.11 0.11 0.11 0.12 0.13 0.13 0.14 0.14 0.15 0.15 0.16 0.16 0.17 0.17 0.17 0.18 0.18 0.18 0.18 0.18 0.17 0.17 0.17 0.16 0.16 0.16 0.16
0.10 0.10 0.11 0.12 0.11 0.09 0.08 0.08 0.08 0.08 0.08 0.08 0.09 0.09 0.09 0.10 0.10 0.10 0.11 0.11 0.12 0.12 0.13 0.14 0.14 0.15 0.15 0.16 0.16 0.17 0.17 0.17 0.17 0.17 0.17 0.17 0.16 0.16 0.16 0.15 0.15 0.15 0.15
Wind_Speed
39 39 40 40 40 40 40 41 42 44 45 46 46 47 47 47 48 48 48 48 48 48 48 48 48 48 50 50 51 52 53 54 57 56 55 54 54 53 52 52 52 51 51
40 41 41 41 41 43 44 45 46 47 47 48 50 50 51 52 52 52 53 53 53 53 53 53 51 51 51 51 52 53 55 55 57 58 57 56 56 56 56 56 55 55 54
41 42 42 43 44 46 47 48 49 50 51 52 53 54 55 55 56 56 57 58 58 58 58 57 57 55 55 54 53 54 54 55 57 58 58 57 57 57 57 58 58 57 57
42 42 43 44 45 47 48 50 51 52 53 55 56 57 58 59 59 61 61 62 62 62 62 62 61 60 60 59 58 57 56 56 56 57 58 59 58 58 58 58 58 59 58
42 43 44 45 47 48 49 50 51 53 55 57 59 61 62 63 64 64 65 66 66 67 67 67 66 65 65 64 62 61 60 59 58 58 58 58 58 58 57 57 59 59 60
43 44 45 46 47 48 49 50 52 55 57 59 61 63 64 65 66 67 68 70 70 71 71 70 70 70 69 68 68 67 66 64 63 61 61 61 60 59 59 59 59 58 58
43 44 45 45 46 46 48 51 53 56 58 59 61 62 63 64 65 66 68 69 71 72 73 74 73 73 73 72 72 72 72 70 70 67 66 64 63 61 60 60 60 60 61
41 42 42 43 44 47 50 52 54 56 58 58 59 60 61 62 63 64 66 67 69 70 72 73 75 76 75 75 75 75 75 74 73 71 72 70 67 65 64 64 63 62 62
40 40 41 43 46 48 51 53 55 56 56 56 56 57 58 59 60 61 62 63 65 67 68 70 72 74 76 77 77 78 79 79 76 75 75 74 72 69 67 65 65 63 62
39 40 42 44 46 49 51 54 54 53 53 53 54 55 56 56 54 53 52 52 54 55 58 61 64 67 70 72 75 77 78 80 78 77 75 75 74 73 70 69 67 66 65
39 40 42 43 46 49 51 52 51 50 51 52 52 52 49 45 43 42 42 43 45 47 50 52 55 58 62 66 68 71 74 74 76 77 77 76 74 72 71 70 69 68 66
38 40 41 43 45 48 50 48 47 48 48 49 48 45 39 37 38 39 40 42 44 46 48 49 51 53 55 57 61 67 69 69 69 72 72 73 73 73 71 69 69 69 69
38 40 41 43 45 47 47 45 44 44 44 43 42 38 36 36 36 39 40 41 43 45 46 48 50 52 54 55 56 58 61 65 65 66 67 69 69 69 67 67 67 66 67
38 39 41 43 44 45 43 41 40 41 40 39 38 36 35 34 35 36 38 41 43 44 45 46 48 48 49 51 52 53 54 56 60 64 63 63 63 63 64 64 64 63 64
38 39 41 42 43 43 39 37 37 37 37 37 36 35 34 34 35 37 38 38 39 41 44 44 43 43 43 44 45 48 49 49 50 55 59 59 58 57 59 60 60 60 61
37 38 39 41 41 40 36 34 35 36 36 36 36 34 33 35 36 38 39 39 39 40 41 39 38 39 40 40 41 42 44 46 45 42 49 50 49 52 54 56 57 57 57
37 38 38 39 39 36 33 33 33 33 34 33 32 33 33 34 34 35 36 37 36 36 35 34 35 36 36 36 36 36 36 39 40 39 40 44 47 49 51 52 52 53 54
36 37 38 37 36 34 31 31 31 31 31 31 31 32 32 33 34 35 33 32 30 30 31 31 32 33 32 30 29 28 28 31 34 35 35 37 40 42 45 47 48 49 50
36 37 37 36 34 31 29 29 29 29 30 31 31 31 32 33 34 32 31 29 28 28 29 30 31 30 28 25 24 22 21 23 30 32 32 32 34 37 40 42 44 45 46
37 37 37 35 32 29 27 27 27 28 28 29 30 30 31 31 31 31 30 29 28 28 28 29 29 28 25 23 21 20 19 18 19 24 29 30 31 33 35 36 39 40 42
37 37 36 33 29 26 25 25 25 26 26 27 28 29 31 30 30 30 30 29 27 27 27 27 27 26 24 22 21 19 18 19 19 22 25 27 28 29 31 33 34 36 37
37 36 34 29 25 23 23 23 23 24 25 26 27 28 29 29 29 30 29 28 27 25 24 24 24 24 23 21 20 18 16 14 14 16 18 20 21 23 24 26 28 30 32
34 32 27 23 21 20 20 21 21 22 23 24 25 26 27 28 28 29 29 28 26 24 22 22 22 22 22 20 18 16 14 13 12 12 12 13 15 17 19 21 23 25 27
30 26 22 19 18 18 19 19 19 20 21 22 24 24 25 26 26 27 27 26 25 23 21 20 20 21 21 20 18 16 14 12 11 10 10 11 12 13 15 17 19 20 23
24 21 19 17 17 17 17 18 18 19 20 21 23 23 24 24 25 25 25 25 24 23 21 20 19 20 20 20 18 16 14 11 9 8 7 7 8 9 11 13 15 16 18
21 19 17 16 16 16 17 17 17 18 20 21 22 22 23 23 24 24 23 23 23 22 21 19 19 19 19 18 18 17 15 12 10 6 3 2 3 5 7 8 10 12 14
Wind_Direction
288 288 286 287 286 284 284 284 283 282 280 280 279 278 278 277 276 276 274 273 272 271 271 270 269 268 266 264 262 261 261 260 260 260 259 257 256 254 254 253 253 252 252
288 287 287 286 286 285 285 284 284 283 282 281 280 279 278 277 277 275 274 273 272 272 271 270 270 269 267 266 264 262 261 260 260 261 260 258 256 255 254 253 253 252 252
288 287 287 287 286 286 286 285 285 284 283 282 281 279 278 278 277 276 275 273 272 271 270 269 269 268 267 266 265 263 263 261 260 260 260 259 258 256 254 253 252 252 252
288 288 288 288 288 288 288 287 286 286 285 284 282 281 279 279 278 276 275 274 272 271 269 268 268 267 266 265 264 264 263 262 261 260 259 259 258 257 255 254 253 252 252
288 289 290 290 290 290 290 289 288 287 286 285 283 281 280 279 278 277 275 274 273 271 270 268 267 266 265 264 263 263 262 261 260 260 259 259 257 256 256 255 253 252 251
289 290 291 291 292 292 292 291 291 290 289 288 286 284 282 280 279 277 275 274 272 271 270 268 267 266 265 264 263 262 261 260 260 259 259 258 258 257 256 255 254 252 253
290 291 292 293 293 294 294 294 294 293 292 291 289 287 284 282 281 278 277 274 272 271 270 268 267 266 264 264 263 262 261 259 258 258 258 257 258 257 256 255 253 252 252
291 293 294 295 295 297 297 297 297 296 295 293 291 289 287 285 283 281 279 276 274 272 270 268 267 266 265 264 263 261 260 259 258 258 257 257 257 257 256 255 254 254 252
292 293 295 296 298 299 300 301 300 299 298 296 294 292 290 287 285 283 280 278 276 274 272 270 269 267 265 264 263 261 260 258 258 257 257 256 256 255 255 254 252 252 252
293 294 296 298 300 301 303 303 303 302 300 299 297 295 293 290 288 285 283 280 279 277 276 274 271 269 267 265 262 261 259 258 257 257 256 255 254 253 253 252 251 251 251
294 296 298 300 302 304 305 306 305 304 303 302 301 299 296 292 290 288 287 285 283 282 281 279 276 274 271 267 264 261 259 259 257 256 254 253 252 251 250 250 250 249 249
295 297 300 302 305 307 308 307 307 306 306 306 305 302 297 293 292 291 290 288 287 286 285 284 281 278 275 272 267 263 261 259 257 254 253 251 250 250 249 249 249 249 248
296 299 301 304 307 309 309 308 308 309 310 310 309 304 300 297 295 294 293 292 291 290 289 287 285 283 278 274 271 267 263 258 255 253 252 250 249 248 248 248 247 248 248
297 299 303 305 308 310 309 309 310 312 312 312 312 307 303 301 300 299 297 295 294 293 292 291 288 286 282 277 272 268 264 260 254 252 252 249 248 246 245 245 245 246 246
297 300 303 306 309 311 308 310 312 314 314 314 315 311 307 306 304 303 304 302 300 298 297 296 292 290 286 281 276 268 265 261 256 253 247 247 246 245 244 244 244 244 244
297 301 304 306 309 310 308 309 314 315 317 316 316 316 313 308 307 307 306 306 305 305 304 299 296 295 291 287 281 274 266 257 254 254 246 244 243 244 246 243 242 242 243
296 301 304 307 309 308 306 308 312 318 320 320 320 321 319 318 317 315 312 311 310 310 310 307 303 301 297 292 287 279 269 255 251 251 248 245 244 246 244 241 241 241 241
296 300 303 305 307 306 304 307 311 315 319 324 325 325 324 323 321 321 320 319 317 317 319 318 313 311 305 297 292 286 274 256 248 248 249 246 245 245 242 240 240 240 240
295 299 301 303 303 301 301 306 310 314 318 321 325 328 328 327 326 325 324 321 319 319 321 324 323 320 315 306 298 291 281 266 249 247 248 247 246 246 243 242 240 238 237
294 297 299 300 298 296 299 304 309 314 318 322 326 329 331 332 332 330 327 324 321 320 321 323 327 326 324 320 308 296 285 273 259 247 246 248 249 247 244 242 239 237 237
292 295 296 296 291 291 296 302 308 313 317 321 326 329 332 334 333 332 331 330 327 324 323 325 327 329 326 322 318 312 301 275 264 256 253 254 251 248 244 241 238 236 235
291 292 292 287 284 287 294 301 307 312 317 321 326 330 333 335 336 336 334 332 331 330 329 329 330 333 333 328 324 318 310 299 284 268 259 254 249 245 241 237 234 233 231
288 290 284 277 276 284 293 300 306 312 317 323 327 331 335 337 338 340 340 339 336 334 336 337 337 338 338 337 333 328 318 307 294 279 267 256 248 242 237 233 231 229 228
285 281 273 268 273 284 292 299 306 313 318 323 327 331 334 337 340 343 344 346 345 343 342 342 344 345 344 344 342 337 329 316 302 289 273 259 248 240 234 230 227 226 225
276 269 262 262 273 283 291 299 305 312 318 323 327 330 332 335 338 342 345 348 350 350 349 349 351 352 353 354 352 351 346 337 325 306 285 258 242 235 229 225 222 221 220
265 256 253 262 273 282 289 297 304 311 316 321 325 327 330 333 335 338 340 344 347 350 352 352 353 356 359 1 4 6 5 6 3 352 325 263 229 223 215 209 207 207 207